period_start,C,m1,H,J0,J1,J2,J3,J4,J5,JA,JB,JC,JD,JJ,JK,JN,#
2015-09-05 00:01:51,0.05,0.14,0.00,23.94,28.48,31.17,14.47,48.03,1017.98,2035.94,3387.51,3219.49,3507.28,599.72,594.72,5.93,0000 0000 0000 0000 000000
2015-09-05 00:06:52,0.05,0.14,0.00,23.94,28.50,31.20,14.53,47.97,1017.79,2035.92,3386.10,3218.52,3506.18,599.94,594.78,5.98,0000 0000 0000 0000 000000
2015-09-05 00:11:53,0.04,0.14,0.00,23.97,28.51,31.20,14.40,47.74,1017.65,2035.77,3384.81,3217.55,3505.10,599.68,594.28,6.03,0000 0000 0000 0000 000000
2015-09-05 00:16:54,0.02,0.14,0.00,23.97,28.52,31.26,14.53,47.88,1017.62,2035.47,3383.50,3216.58,3503.98,600.29,594.77,6.08,0000 0000 0000 0000 000000
2015-09-05 00:21:56,0.06,0.15,0.00,24.00,28.53,31.25,14.47,47.94,1017.62,2035.43,3382.34,3215.79,3502.97,600.02,594.51,6.13,0000 0000 0000 0000 000000
2015-09-05 00:26:57,0.04,0.15,0.00,24.00,28.55,31.25,14.44,48.14,1017.62,2035.19,3380.96,3214.73,3501.84,600.39,594.92,6.18,0000 0000 0000 0000 000000
2015-09-05 00:31:59,0.05,0.15,0.00,24.00,28.55,31.24,14.45,48.20,1017.61,2035.07,3379.60,3213.77,3500.70,599.57,594.27,6.23,0000 0000 0000 0000 000000
2015-09-05 00:37:00,0.05,0.15,0.00,24.01,28.57,31.28,14.55,48.28,1017.59,2035.02,3378.36,3212.86,3499.64,600.29,594.69,6.28,0000 0000 0000 0000 000000
2015-09-05 00:42:01,0.06,0.16,0.00,24.02,28.58,31.36,14.44,48.33,1017.59,2035.05,3377.00,3211.98,3498.61,600.17,594.73,6.33,0000 0000 0000 0000 000000
2015-09-05 00:47:03,0.06,0.16,0.00,24.04,28.60,31.36,14.47,48.21,1017.58,2035.02,3375.70,3211.07,3497.62,600.00,594.43,6.38,0000 0000 0000 0000 000000
2015-09-05 00:52:04,0.06,0.16,0.00,24.06,28.60,31.31,14.52,48.13,1017.49,2035.03,3374.43,3210.13,3496.55,600.16,594.65,6.43,0000 0000 0000 0000 000000
2015-09-05 00:57:05,0.06,0.17,0.00,24.05,28.62,31.43,14.44,48.25,1017.49,2035.00,3372.93,3209.11,3495.42,599.73,594.24,6.48,0000 0000 0000 0000 000000
2015-09-05 01:02:06,0.06,0.17,0.00,24.06,28.62,31.51,14.45,48.34,1017.51,2035.00,3371.63,3208.14,3494.28,599.83,594.26,6.53,0000 0000 0000 0000 000000
2015-09-05 01:07:08,0.06,0.17,0.00,24.05,28.64,31.51,14.42,48.20,1017.35,2035.00,3370.28,3207.17,3493.16,599.90,594.26,6.58,0000 0000 0000 0000 000000
2015-09-05 01:12:09,0.06,0.18,0.00,24.09,28.65,31.53,14.49,48.26,1017.30,2035.00,3368.88,3206.14,3492.05,599.83,594.18,6.63,0000 0000 0000 0000 000000
2015-09-05 01:17:10,0.06,0.18,0.00,24.12,28.67,31.56,14.47,48.21,1017.20,2034.99,3367.59,3205.26,3490.95,599.75,593.97,6.69,0000 0000 0000 0000 000000
2015-09-05 01:22:11,0.05,0.18,0.00,24.14,28.68,31.58,14.50,48.20,1017.14,2034.99,3366.41,3204.29,3489.83,600.23,594.28,6.74,0000 0000 0000 0000 000000
2015-09-05 01:27:13,0.05,0.18,0.00,24.14,28.70,31.59,14.56,48.35,1017.15,2034.98,3365.09,3203.42,3488.80,600.09,594.15,6.79,0000 0000 0000 0000 000000
2015-09-05 01:32:14,0.06,0.19,0.00,24.13,28.71,31.60,14.46,48.17,1017.12,2034.98,3363.74,3202.45,3487.78,600.26,594.29,6.84,0000 0000 0000 0000 000000
2015-09-05 01:37:15,0.06,0.19,0.00,24.16,28.72,31.64,14.47,48.31,1017.11,2034.96,3362.41,3201.44,3486.55,600.03,594.14,6.89,0000 0000 0000 0000 000000
2015-09-05 01:42:17,0.05,0.19,0.00,24.19,28.74,31.65,14.49,48.32,1017.11,2034.88,3360.97,3200.47,3485.44,600.06,593.99,6.94,0000 0000 0000 0000 000000
2015-09-05 01:47:18,0.04,0.20,0.00,24.20,28.75,31.65,14.51,48.47,1017.10,2034.66,3359.56,3199.34,3484.16,600.05,593.90,6.99,0000 0000 0000 0000 000000
2015-09-05 01:52:19,0.04,0.20,0.00,24.22,28.77,31.69,14.47,48.08,1017.10,2034.50,3358.18,3198.52,3483.12,600.09,593.93,7.04,0000 0000 0000 0000 000000
2015-09-05 01:57:20,0.06,0.20,0.00,24.25,28.78,31.68,14.52,48.21,1017.10,2034.36,3356.82,3197.55,3481.94,600.29,594.17,7.09,0000 0000 0000 0000 000000
2015-09-05 02:02:21,0.04,0.20,0.00,24.27,28.80,31.70,14.48,48.25,1017.10,2034.22,3355.45,3196.66,3480.86,599.92,593.70,7.14,0000 0000 0000 0000 000000
2015-09-05 02:07:22,0.05,0.21,0.00,24.29,28.81,31.72,14.48,48.17,1017.10,2034.06,3354.07,3195.56,3479.72,599.89,593.59,7.19,0000 0000 0000 0000 000000
2015-09-05 02:12:24,0.06,0.21,0.00,24.31,28.82,31.71,14.37,48.19,1017.06,2034.04,3352.68,3194.58,3478.57,599.75,593.46,7.24,0000 0000 0000 0000 000000
2015-09-05 02:17:25,0.05,0.21,0.00,24.32,28.84,31.73,14.45,48.23,1016.97,2034.04,3351.20,3193.55,3477.43,599.93,593.40,7.29,0000 0000 0000 0000 000000
2015-09-05 02:22:26,0.06,0.22,0.00,24.35,28.85,31.75,14.47,48.29,1016.68,2034.01,3349.65,3192.46,3476.16,600.18,593.57,7.34,0000 0000 0000 0000 000000
2015-09-05 02:27:28,0.06,0.22,0.00,24.37,28.87,31.75,14.46,48.27,1016.66,2034.00,3348.23,3191.38,3474.92,599.78,593.11,7.39,0000 0000 0000 0000 000000
2015-09-05 02:32:29,0.07,0.22,0.00,24.40,28.87,31.75,14.49,48.23,1016.70,2034.00,3346.68,3190.28,3473.65,600.16,593.51,7.44,0000 0000 0000 0000 000000
2015-09-05 02:37:30,0.06,0.23,0.00,24.42,28.89,31.77,14.48,48.27,1016.68,2034.00,3345.17,3189.20,3472.46,600.26,593.46,7.49,0000 0000 0000 0000 000000
2015-09-05 02:42:32,0.06,0.23,0.00,24.45,28.90,31.75,14.46,48.27,1016.63,2034.00,3343.67,3188.16,3471.27,599.89,593.07,7.54,0000 0000 0000 0000 000000
2015-09-05 02:47:33,0.07,0.23,0.00,24.47,28.92,31.76,14.45,48.22,1016.62,2034.00,3342.16,3187.07,3469.98,599.94,593.04,7.59,0000 0000 0000 0000 000000
2015-09-05 02:52:34,0.08,0.24,0.00,24.49,28.92,31.77,14.48,48.30,1016.62,2034.00,3340.42,3185.83,3468.58,599.76,592.79,7.64,0000 0000 0000 0000 000000
2015-09-05 02:57:35,0.07,0.24,0.00,24.52,28.94,31.77,14.46,48.33,1016.54,2033.98,3338.78,3184.66,3467.30,599.83,592.93,7.69,0000 0000 0000 0000 000000
2015-09-05 03:02:37,0.07,0.25,0.00,24.54,28.95,31.78,14.42,48.16,1016.40,2033.97,3337.20,3183.51,3465.94,599.85,592.68,7.74,0000 0000 0000 0000 000000
2015-09-05 03:07:38,0.07,0.25,0.00,24.56,28.96,31.79,14.44,48.22,1016.40,2033.97,3335.56,3182.38,3464.65,599.79,592.62,7.79,0000 0000 0000 0000 000000
2015-09-05 03:12:40,0.07,0.25,0.00,24.58,28.97,31.79,14.52,48.30,1016.55,2033.92,3333.79,3181.16,3463.21,600.38,593.22,7.84,0000 0000 0000 0000 000000
2015-09-05 03:17:41,0.08,0.26,0.00,24.60,28.99,31.79,14.41,48.15,1016.37,2033.85,3331.94,3179.83,3461.66,600.11,592.78,7.89,0000 0000 0000 0000 000000
2015-09-05 03:22:42,0.04,0.26,0.00,24.62,29.00,31.79,14.48,48.31,1016.32,2033.57,3330.16,3178.50,3460.20,599.93,592.56,7.94,0000 0000 0000 0000 000000
2015-09-05 03:27:43,0.08,0.26,0.00,24.65,29.00,31.82,14.37,48.13,1016.35,2033.58,3328.34,3177.21,3458.71,599.78,592.45,7.99,0000 0000 0000 0000 000000
2015-09-05 03:32:45,0.09,0.27,0.00,24.68,29.02,31.82,14.45,48.25,1016.17,2033.62,3326.61,3175.91,3457.25,599.91,592.10,8.04,0000 0000 0000 0000 000000
2015-09-05 03:37:46,0.06,0.27,0.00,24.71,29.03,31.83,14.44,48.17,1016.14,2033.36,3324.62,3174.45,3455.65,600.00,592.44,8.09,0000 0000 0000 0000 000000
2015-09-05 03:42:47,0.08,0.28,0.00,24.74,29.05,31.85,14.40,48.22,1016.09,2033.12,3322.58,3172.95,3453.98,600.02,592.27,8.14,0000 0000 0000 0000 000000
2015-09-05 03:47:48,0.09,0.28,0.00,24.77,29.06,31.84,14.44,48.17,1015.72,2033.06,3320.58,3171.55,3452.41,600.14,592.10,8.19,0000 0000 0000 0000 000000
2015-09-05 03:52:50,0.08,0.28,0.00,24.79,29.07,31.84,14.42,48.17,1015.65,2033.01,3318.57,3170.12,3450.74,600.19,591.90,8.24,0000 0000 0000 0000 000000
2015-09-05 03:57:51,0.10,0.29,0.00,24.81,29.08,31.86,14.43,48.19,1015.64,2033.02,3316.49,3168.66,3449.07,599.87,591.71,8.29,0000 0000 0000 0000 000000
2015-09-05 04:02:53,0.10,0.29,0.00,24.84,29.10,31.87,14.43,48.25,1015.61,2033.00,3314.27,3167.09,3447.31,599.92,591.73,8.34,0000 0000 0000 0000 000000
2015-09-05 04:07:54,0.10,0.30,0.00,24.86,29.10,31.87,14.39,48.21,1015.60,2033.00,3312.23,3165.53,3445.58,599.67,591.47,8.39,0000 0000 0000 0000 000000
2015-09-05 04:12:55,0.10,0.30,0.00,24.87,29.12,31.89,14.36,48.17,1015.57,2033.00,3310.01,3163.97,3443.79,599.83,591.39,8.44,0000 0000 0000 0000 000000
2015-09-05 04:17:56,0.09,0.31,0.00,24.90,29.12,31.87,14.41,48.29,1015.53,2033.00,3307.79,3162.46,3442.10,599.95,591.56,8.49,0000 0000 0000 0000 000000
2015-09-05 04:22:58,0.11,0.31,0.00,24.92,29.14,31.89,14.44,48.23,1015.42,2032.99,3305.47,3160.81,3440.24,600.16,591.74,8.54,0000 0000 0000 0000 000000
2015-09-05 04:27:59,0.10,0.32,0.00,24.94,29.15,31.88,14.41,48.20,1015.30,2032.99,3303.21,3159.28,3438.42,599.97,591.38,8.59,0000 0000 0000 0000 000000
2015-09-05 04:33:00,0.11,0.32,0.00,24.97,29.15,31.90,14.36,48.14,1015.24,2032.97,3300.94,3157.59,3436.56,599.91,591.11,8.64,0000 0000 0000 0000 000000
2015-09-05 04:38:01,0.09,0.33,0.00,24.99,29.17,31.91,14.46,48.27,1015.17,2032.96,3298.64,3156.01,3434.75,600.34,591.56,8.69,0000 0000 0000 0000 000000
2015-09-05 04:43:02,0.10,0.34,0.00,25.02,29.17,31.93,14.41,48.30,1015.17,2032.97,3296.57,3154.52,3433.05,600.10,591.27,8.74,0000 0000 0000 0000 000000
2015-09-05 04:48:04,0.10,0.34,0.00,25.05,29.18,31.92,14.35,48.28,1015.17,2032.94,3294.21,3152.87,3431.19,599.91,590.85,8.79,0000 0000 0000 0000 000000
2015-09-05 04:53:05,0.10,0.35,0.00,25.07,29.20,31.93,14.40,48.31,1015.17,2032.94,3291.74,3151.21,3429.26,600.01,591.14,8.84,0000 0000 0000 0000 000000
2015-09-05 04:58:06,0.10,0.35,0.00,25.10,29.20,31.95,14.43,48.20,1015.15,2032.91,3289.39,3149.57,3427.39,600.21,591.27,8.89,0000 0000 0000 0000 000000
2015-09-05 05:03:07,0.09,0.36,0.00,25.13,29.20,31.96,14.46,48.17,1015.16,2032.71,3287.04,3147.82,3425.45,600.69,591.56,8.94,0000 0000 0000 0000 000000
2015-09-05 05:08:09,0.08,0.36,0.00,25.16,29.22,31.95,14.34,48.16,1015.15,2032.52,3284.71,3146.23,3423.61,599.44,590.32,9.00,0000 0000 0000 0000 000000
2015-09-05 05:13:10,0.09,0.36,0.00,25.17,29.22,31.97,14.36,48.18,1015.12,2032.28,3282.52,3144.65,3421.77,600.33,591.08,9.05,0000 0000 0000 0000 000000
2015-09-05 05:18:12,0.09,0.37,0.00,25.20,29.23,31.97,14.38,48.03,1015.03,2032.11,3280.21,3142.94,3419.84,600.12,590.80,9.10,0000 0000 0000 0000 000000
2015-09-05 05:23:13,0.10,0.38,0.00,25.23,29.25,31.97,14.43,48.16,1015.00,2032.11,3277.90,3141.33,3418.04,599.98,590.63,9.15,0000 0000 0000 0000 000000
2015-09-05 05:28:14,0.10,0.38,0.00,25.26,29.25,31.98,14.32,48.02,1014.84,2032.04,3275.45,3139.66,3416.10,599.79,590.19,9.20,0000 0000 0000 0000 000000
2015-09-05 05:33:15,0.10,0.39,0.00,25.29,29.25,31.98,14.35,47.93,1014.69,2032.02,3273.10,3137.96,3414.16,599.72,590.28,9.25,0000 0000 0000 0000 000000
2015-09-05 05:38:16,0.11,0.39,0.00,25.31,29.27,31.98,14.34,48.09,1014.68,2032.01,3270.71,3136.25,3412.21,599.86,590.17,9.30,0000 0000 0000 0000 000000
2015-09-05 05:43:18,0.10,0.40,0.00,25.33,29.27,32.00,14.40,47.99,1014.67,2032.01,3268.33,3134.72,3410.35,600.31,590.56,9.35,0000 0000 0000 0000 000000
2015-09-05 05:48:19,0.11,0.40,0.00,25.36,29.27,31.98,14.36,48.05,1014.68,2032.00,3265.89,3133.05,3408.44,600.12,590.35,9.40,0000 0000 0000 0000 000000
2015-09-05 05:53:20,0.10,0.41,0.00,25.38,29.29,31.99,14.38,48.13,1014.67,2032.00,3263.66,3131.53,3406.61,599.64,589.83,9.45,0000 0000 0000 0000 000000
2015-09-05 05:58:22,0.11,0.41,0.00,25.41,29.30,32.00,14.40,48.04,1014.74,2032.00,3261.34,3129.82,3404.71,600.06,590.19,9.50,0000 0000 0000 0000 000000
2015-09-05 06:03:23,0.10,0.42,0.00,25.44,29.30,32.00,14.33,47.87,1014.87,2032.00,3259.06,3128.15,3402.84,599.78,590.06,9.55,0000 0000 0000 0000 000000
2015-09-05 06:08:24,0.11,0.42,0.00,25.46,29.31,32.02,14.36,47.93,1015.07,2032.00,3256.58,3126.48,3400.90,599.99,590.23,9.60,0000 0000 0000 0000 000000
2015-09-05 06:13:26,0.12,0.43,0.00,25.49,29.32,32.03,14.35,47.84,1015.11,2032.00,3254.00,3124.64,3398.86,599.98,590.11,9.65,0000 0000 0000 0000 000000
2015-09-05 06:18:27,0.12,0.44,0.00,25.51,29.32,32.05,14.37,47.89,1015.13,2032.00,3251.44,3122.84,3396.79,599.90,590.03,9.70,0000 0000 0000 0000 000000
2015-09-05 06:23:28,0.10,0.44,0.00,25.54,29.33,32.03,14.29,48.03,1015.09,2032.00,3249.09,3121.21,3394.93,600.01,590.06,9.75,0000 0000 0000 0000 000000
2015-09-05 06:28:29,0.11,0.45,0.00,25.57,29.35,32.04,14.41,47.98,1015.08,2032.00,3246.75,3119.54,3393.03,599.89,589.89,9.80,0000 0000 0000 0000 000000
2015-09-05 06:33:31,0.11,0.45,0.00,25.60,29.35,32.04,14.37,47.92,1015.10,2032.00,3244.32,3117.81,3391.23,599.87,589.78,9.85,0000 0000 0000 0000 000000
2015-09-05 06:38:32,0.11,0.46,0.00,25.62,29.37,32.04,14.27,47.92,1015.07,2031.98,3241.90,3116.08,3389.37,599.72,589.59,9.90,0000 0000 0000 0000 000000
2015-09-05 06:43:33,0.11,0.47,0.00,25.65,29.37,32.06,14.43,47.85,1014.94,2031.97,3239.47,3114.35,3387.40,600.52,590.28,9.95,0000 0000 0000 0000 000000
2015-09-05 06:48:34,0.11,0.47,0.00,25.69,29.39,32.06,14.33,47.98,1014.77,2031.97,3237.01,3112.65,3385.47,599.72,589.29,10.00,0000 0000 0000 0000 000000
2015-09-05 06:53:36,0.10,0.48,0.00,25.72,29.40,32.06,14.36,48.06,1014.74,2031.84,3234.65,3110.92,3383.53,600.31,589.85,10.05,0000 0000 0000 0000 000000
2015-09-05 06:58:37,0.09,0.48,0.00,25.75,29.42,32.08,14.33,47.83,1014.68,2031.59,3232.20,3109.18,3381.50,600.27,589.69,10.10,0000 0000 0000 0000 000000
2015-09-05 07:03:39,0.10,0.49,0.00,25.76,29.42,32.08,14.31,47.83,1014.67,2031.43,3229.64,3107.40,3379.51,600.36,589.73,10.15,0000 0000 0000 0000 000000
2015-09-05 07:08:40,0.10,0.49,0.00,25.77,29.45,32.08,14.32,47.83,1014.68,2031.13,3227.10,3105.59,3377.46,599.72,589.05,10.20,0000 0000 0000 0000 000000
2015-09-05 07:13:41,0.11,0.50,0.00,25.80,29.45,32.09,14.34,47.89,1014.67,2031.04,3224.57,3103.71,3375.43,599.95,589.30,10.25,0000 0000 0000 0000 000000
2015-09-05 07:18:43,0.12,0.50,0.00,25.82,29.47,32.12,14.33,47.82,1014.66,2031.02,3222.07,3101.95,3373.37,600.25,589.53,10.30,0000 0000 0000 0000 000000
2015-09-05 07:23:44,0.11,0.51,0.00,25.84,29.47,32.09,14.32,47.70,1014.69,2031.02,3219.52,3100.23,3371.43,599.89,589.09,10.35,0000 0000 0000 0000 000000
2015-09-05 07:28:45,0.12,0.52,0.00,25.87,29.50,32.13,14.29,47.72,1014.67,2031.00,3216.99,3098.44,3369.38,599.89,589.08,10.40,0000 0000 0000 0000 000000
2015-09-05 07:33:46,0.12,0.52,0.00,25.89,29.50,32.11,14.29,47.88,1014.66,2031.00,3214.45,3096.62,3367.39,600.06,589.20,10.45,0000 0000 0000 0000 000000
2015-09-05 07:38:48,0.12,0.53,0.00,25.90,29.52,32.13,14.33,47.78,1014.66,2031.00,3211.89,3094.83,3365.32,599.93,589.09,10.50,0000 0000 0000 0000 000000
2015-09-05 07:43:49,0.12,0.53,0.00,25.92,29.52,32.14,14.31,47.74,1014.67,2030.99,3209.31,3092.97,3363.25,600.11,589.23,10.55,0000 0000 0000 0000 000000
2015-09-05 07:48:50,0.11,0.54,0.00,25.94,29.55,32.14,14.27,47.68,1014.67,2030.98,3206.79,3091.20,3361.26,600.20,589.25,10.60,0000 0000 0000 0000 000000
2015-09-05 07:53:52,0.12,0.55,0.00,25.96,29.56,32.14,14.38,47.75,1014.67,2030.95,3204.15,3089.27,3359.07,600.13,589.12,10.65,0000 0000 0000 0000 000000
2015-09-05 07:58:53,0.11,0.55,0.00,25.99,29.57,32.14,14.29,47.88,1014.67,2030.89,3201.47,3087.45,3356.94,600.41,589.24,10.70,0000 0000 0000 0000 000000
2015-09-05 08:03:54,0.12,0.56,0.00,26.01,29.60,32.12,14.32,47.80,1014.66,2030.86,3199.04,3085.65,3354.89,600.10,589.15,10.75,0000 0000 0000 0000 000000
2015-09-05 08:08:56,0.10,0.56,0.00,26.04,29.61,32.12,14.25,47.63,1014.66,2030.70,3196.53,3083.78,3352.81,600.16,588.86,10.80,0000 0000 0000 0000 000000
2015-09-05 08:13:57,0.08,0.57,0.00,26.08,29.63,32.09,14.26,47.89,1014.67,2030.29,3193.81,3081.84,3350.63,600.15,588.94,10.85,0000 0000 0000 0000 000000
2015-09-05 08:18:58,0.13,0.58,0.00,26.11,29.65,32.04,14.25,47.70,1014.67,2030.15,3191.08,3079.84,3348.27,600.03,588.72,10.90,0000 0000 0000 0000 000000
2015-09-05 08:24:00,0.13,0.58,0.00,26.15,29.67,32.07,14.35,47.77,1014.66,2030.05,3188.31,3077.86,3345.99,599.98,588.61,10.95,0000 0000 0000 0000 000000
2015-09-05 08:29:01,0.14,0.59,0.00,26.20,29.70,32.09,14.21,47.82,1014.66,2030.00,3185.38,3075.75,3343.63,599.77,588.37,11.00,0000 0000 0000 0000 000000
2015-09-05 08:34:03,0.13,0.59,0.00,26.24,29.71,32.12,14.24,47.88,1014.67,2030.00,3182.52,3073.68,3341.31,599.97,588.42,11.05,0000 0000 0000 0000 000000
2015-09-05 08:39:04,0.13,0.60,0.00,26.29,29.74,32.12,14.24,47.83,1014.68,2029.99,3179.70,3071.66,3339.06,599.95,588.36,11.10,0000 0000 0000 0000 000000
2015-09-05 08:44:05,0.13,0.61,0.00,26.33,29.76,32.17,14.32,48.00,1014.70,2029.99,3176.99,3069.77,3336.77,600.11,588.47,11.15,0000 0000 0000 0000 000000
2015-09-05 08:49:06,0.12,0.62,0.00,26.38,29.78,32.22,14.30,47.91,1014.90,2029.97,3174.14,3067.86,3334.52,600.13,588.43,11.20,0000 0000 0000 0000 000000
2015-09-05 08:54:07,0.11,0.62,0.00,26.41,29.81,32.23,14.27,47.78,1015.08,2029.81,3171.39,3065.77,3332.20,600.43,588.78,11.25,0000 0000 0000 0000 000000
2015-09-05 08:59:08,0.10,0.63,0.00,26.44,29.84,32.27,14.24,47.99,1015.10,2029.46,3168.63,3063.79,3329.96,600.09,588.39,11.30,0000 0000 0000 0000 000000
2015-09-05 09:04:10,0.11,0.63,0.00,26.46,29.87,32.30,14.33,48.07,1015.14,2029.25,3165.98,3061.88,3327.89,600.13,588.42,11.35,0000 0000 0000 0000 000000
2015-09-05 09:09:11,0.12,0.64,0.00,26.48,29.90,32.32,14.29,48.00,1015.15,2029.04,3163.18,3059.89,3325.64,600.49,588.74,11.40,0000 0000 0000 0000 000000
2015-09-05 09:14:12,0.14,0.64,0.00,26.51,29.92,32.37,14.36,47.96,1015.15,2029.00,3160.36,3057.81,3323.32,600.75,588.94,11.46,0000 0000 0000 0000 000000
2015-09-05 09:19:13,0.13,0.65,0.00,26.53,29.95,32.36,14.25,47.88,1015.15,2029.00,3157.60,3055.80,3321.12,600.44,588.55,11.51,0000 0000 0000 0000 000000
2015-09-05 09:24:15,0.13,0.66,0.00,26.56,29.98,32.40,14.31,47.84,1015.15,2029.00,3154.86,3053.82,3318.88,600.24,588.33,11.56,0000 0000 0000 0000 000000
2015-09-05 09:29:16,0.13,0.67,0.00,26.59,30.01,32.42,14.28,47.79,1015.15,2028.95,3152.07,3051.71,3316.52,600.04,588.10,11.61,0000 0000 0000 0000 000000
2015-09-05 09:34:18,0.13,0.67,0.00,26.62,30.03,32.46,14.30,47.83,1015.15,2028.88,3149.17,3049.68,3314.24,600.07,588.07,11.66,0000 0000 0000 0000 000000
2015-09-05 09:39:19,0.07,0.68,0.00,26.66,30.06,32.47,14.25,47.88,1015.15,2028.29,3146.32,3047.59,3311.88,599.94,587.92,11.71,0000 0000 0000 0000 000000
2015-09-05 09:44:20,0.12,0.68,0.00,26.68,30.08,32.50,14.19,47.73,1015.16,2028.08,3143.45,3045.54,3309.55,599.69,587.63,11.76,0000 0000 0000 0000 000000
2015-09-05 09:49:22,0.14,0.69,0.00,26.71,30.11,32.50,14.37,47.77,1015.15,2028.01,3140.57,3043.41,3307.21,600.17,587.98,11.81,0000 0000 0000 0000 000000
2015-09-05 09:54:23,0.15,0.70,0.00,26.75,30.13,32.54,14.20,47.75,1015.15,2028.00,3137.58,3041.27,3304.75,599.71,587.47,11.86,0000 0000 0000 0000 000000
2015-09-05 09:59:24,0.14,0.71,0.00,26.77,30.16,32.56,14.31,47.62,1015.27,2028.00,3134.70,3039.17,3302.30,600.65,588.22,11.91,0000 0000 0000 0000 000000
2015-09-05 10:04:25,0.15,0.71,0.00,26.80,30.18,32.58,14.22,47.70,1015.46,2027.98,3131.75,3036.89,3299.85,599.70,587.64,11.96,0000 0000 0000 0000 000000
2015-09-05 10:09:27,0.13,0.72,0.00,26.83,30.21,32.60,14.28,47.63,1015.46,2027.91,3128.71,3034.68,3297.34,600.43,588.19,12.01,0000 0000 0000 0000 000000
2015-09-05 10:14:28,0.10,0.73,0.00,26.85,30.23,32.63,14.28,47.54,1015.61,2027.58,3125.76,3032.57,3294.95,600.04,587.83,12.06,0000 0000 0000 0000 000000
2015-09-05 10:19:29,0.12,0.73,0.00,26.87,30.26,32.64,14.29,47.77,1015.61,2027.16,3122.80,3030.43,3292.47,600.08,587.89,12.11,0000 0000 0000 0000 000000
2015-09-05 10:24:30,0.14,0.74,0.00,26.90,30.28,32.67,14.26,47.56,1015.64,2027.03,3119.81,3028.32,3290.08,600.57,588.33,12.16,0000 0000 0000 0000 000000
2015-09-05 10:29:32,0.14,0.75,0.00,26.92,30.31,32.70,14.15,47.54,1015.64,2027.01,3116.91,3026.20,3287.72,599.41,587.11,12.21,0000 0000 0000 0000 000000
2015-09-05 10:34:33,0.14,0.75,0.00,26.92,30.33,32.75,14.23,47.68,1015.64,2027.00,3113.94,3024.13,3285.33,599.77,587.39,12.26,0000 0000 0000 0000 000000
2015-09-05 10:39:34,0.16,0.76,0.00,26.95,30.36,32.75,14.26,47.64,1015.64,2027.00,3110.78,3021.87,3282.80,600.24,587.83,12.31,0000 0000 0000 0000 000000
2015-09-05 10:44:35,0.14,0.77,0.00,26.95,30.38,32.81,14.33,47.74,1015.64,2026.98,3107.79,3019.73,3280.38,600.28,587.78,12.36,0000 0000 0000 0000 000000
2015-09-05 10:49:36,0.14,0.78,0.00,26.97,30.40,32.86,14.29,47.74,1015.64,2026.93,3104.74,3017.56,3277.96,600.10,587.68,12.41,0000 0000 0000 0000 000000
2015-09-05 10:54:38,0.11,0.78,0.00,26.97,30.42,32.88,14.28,47.66,1015.63,2026.62,3101.73,3015.37,3275.46,600.23,587.73,12.46,0000 0000 0000 0000 000000
2015-09-05 10:59:39,0.11,0.79,0.00,26.99,30.45,32.91,14.31,47.69,1015.64,2026.14,3098.79,3013.24,3273.12,600.05,587.55,12.51,0000 0000 0000 0000 000000
2015-09-05 11:04:40,0.13,0.79,0.00,27.00,30.46,32.94,14.27,47.77,1015.64,2026.03,3095.89,3011.24,3270.78,599.97,587.46,12.56,0000 0000 0000 0000 000000
2015-09-05 11:09:42,0.14,0.80,0.00,27.00,30.47,32.95,14.24,47.57,1015.64,2026.00,3092.98,3009.18,3268.43,600.04,587.52,12.61,0000 0000 0000 0000 000000
2015-09-05 11:14:43,0.13,0.81,0.00,27.01,30.50,32.98,14.19,47.63,1015.65,2026.00,3090.22,3007.36,3266.24,599.66,587.32,12.66,0000 0000 0000 0000 000000
2015-09-05 11:19:45,0.13,0.82,0.00,27.02,30.51,33.03,14.24,47.59,1015.65,2026.00,3087.39,3005.42,3263.96,600.01,587.57,12.71,0000 0000 0000 0000 000000
2015-09-05 11:24:46,0.13,0.82,0.00,27.02,30.53,33.01,14.28,47.67,1015.67,2025.98,3084.56,3003.37,3261.83,600.24,587.74,12.76,0000 0000 0000 0000 000000
2015-09-05 11:29:47,0.13,0.83,0.00,27.05,30.55,33.06,14.21,47.58,1015.82,2025.98,3081.75,3001.38,3259.59,599.69,587.25,12.81,0000 0000 0000 0000 000000
2015-09-05 11:34:48,0.13,0.84,0.00,27.05,30.56,33.09,14.26,47.64,1016.10,2025.96,3079.00,2999.43,3257.34,599.85,587.58,12.86,0000 0000 0000 0000 000000
2015-09-05 11:39:50,0.13,0.84,0.00,27.05,30.57,33.15,14.22,47.67,1016.13,2025.84,3076.24,2997.45,3255.18,599.89,587.58,12.91,0000 0000 0000 0000 000000
2015-09-05 11:44:51,0.09,0.85,0.00,27.07,30.60,33.16,14.21,47.60,1016.13,2025.53,3073.52,2995.52,3252.99,599.88,587.56,12.96,0000 0000 0000 0000 000000
2015-09-05 11:49:52,0.12,0.85,0.00,27.07,30.61,33.17,14.23,47.45,1016.13,2025.28,3070.85,2993.58,3250.75,600.04,587.73,13.01,0000 0000 0000 0000 000000
2015-09-05 11:54:54,0.12,0.86,0.00,27.07,30.62,33.18,14.32,47.57,1016.13,2025.08,3068.13,2991.61,3248.51,600.49,588.22,13.06,0000 0000 0000 0000 000000
2015-09-05 11:59:55,0.13,0.87,0.00,27.07,30.64,33.22,14.22,47.47,1016.13,2025.03,3065.47,2989.72,3246.37,599.82,587.49,13.11,0000 0000 0000 0000 000000
2015-09-05 12:04:56,0.13,0.87,0.00,27.09,30.65,33.25,14.21,47.39,1016.13,2025.00,3062.81,2987.83,3244.27,599.86,587.55,13.16,0000 0000 0000 0000 000000
2015-09-05 12:09:57,0.14,0.88,0.00,27.10,30.66,33.26,14.34,47.69,1016.15,2025.00,3060.13,2985.95,3242.14,600.12,587.66,13.21,0000 0000 0000 0000 000000
2015-09-05 12:14:58,0.12,0.89,0.00,27.10,30.67,33.30,14.30,47.62,1016.14,2025.00,3057.50,2984.10,3240.05,600.61,588.09,13.26,0000 0000 0000 0000 000000
2015-09-05 12:19:59,0.13,0.89,0.00,27.10,30.69,33.32,14.27,47.57,1016.13,2025.00,3054.83,2982.16,3237.89,600.01,587.70,13.31,0000 0000 0000 0000 000000
2015-09-05 12:25:00,0.13,0.90,0.00,27.11,30.70,33.34,14.29,47.55,1016.13,2025.00,3052.15,2980.35,3235.72,599.97,587.58,13.36,0000 0000 0000 0000 000000
2015-09-05 12:30:02,0.12,0.91,0.00,27.10,30.70,33.33,14.27,47.57,1016.13,2024.99,3049.58,2978.50,3233.68,600.12,587.73,13.41,0000 0000 0000 0000 000000
2015-09-05 12:35:03,0.13,0.91,0.00,27.12,30.72,33.37,14.26,47.90,1016.13,2024.97,3046.86,2976.61,3231.53,599.99,587.58,13.46,0000 0000 0000 0000 000000
2015-09-05 12:40:04,0.13,0.92,0.00,27.12,30.72,33.39,14.21,47.64,1016.13,2024.95,3044.13,2974.67,3229.33,599.96,587.67,13.51,0000 0000 0000 0000 000000
2015-09-05 12:45:05,0.12,0.93,0.00,27.13,30.74,33.41,14.23,47.52,1016.19,2024.94,3041.53,2972.82,3227.29,600.05,587.66,13.56,0000 0000 0000 0000 000000
2015-09-05 12:50:06,0.13,0.93,0.00,27.12,30.75,33.43,14.28,47.64,1016.52,2024.85,3038.90,2970.93,3225.19,600.17,587.92,13.61,0000 0000 0000 0000 000000
2015-09-05 12:55:08,0.11,0.94,0.00,27.12,30.75,33.45,14.17,47.49,1016.55,2024.81,3036.34,2969.16,3223.13,599.64,587.49,13.66,0000 0000 0000 0000 000000